Siemreap, Cambodia

11:49 PM +07 on October 19, 2017 (GMT +0700)
Siem Reap

Weather History for VDSR - May, 2013

Change the Weather History Date:

Wednesday, May 8, 2013

  Actual Average Record
Temperature  
Mean Temperature 88 °F -  
Max Temperature 95 °F - - ()
Min Temperature 80 °F - - ()
Cooling Degree Days 22    
Growing Degree Days 38 (Base 50)    
Moisture  
Dew Point 76 °F    
Average Humidity 75    
Maximum Humidity 94    
Minimum Humidity 52    
Precipitation  
Precipitation 0.00 in - - ()
Sea Level Pressure  
Sea Level Pressure 29.72 in    
Wind  
Wind Speed 3 mph ()    
Max Wind Speed 12 mph    
Max Gust Speed -    
Visibility 5.8 miles    
Events Rain , Thunderstorm    
T = Trace of Precipitation, MM = Missing Value Source: Averaged Metar Reports

Daily Weather History Graph

Daily Weather History Graph

Search for Another Location

Airport or City:

Trip Planner

Search our weather history database for the weather conditions in past years. The results will help you decide how hot, cold, wet, or windy it might be!

Date:

Astronomy

May. 08, 2013 Rise Set
Actual Time 5:40 AM +07 6:21 PM +07
Civil Twilight 5:18 AM +07 6:43 PM +07
Nautical Twilight 4:52 AM +07 7:10 PM +07
Astronomical Twilight 4:25 AM +07 7:36 PM +07
Moon 4:13 AM +07 (5/8) 5:00 PM +07 (5/8)
Length of Visible Light 13h 25m
Length of Day
12h 40m
Waning Crescent, 3% of the Moon is Illuminated
May 8
Waning Crescent
May 10
New
May 18
First Quarter
May 25
Full
Jun 1
Last Quarter

Hourly Weather History & Observations

Time (+07) Temp. Heat Index Dew Point Humidity Pressure Visibility Wind Dir Wind Speed Gust Speed Precip Events Conditions
12:00 AM 84.2 °F 94.1 °F 77.0 °F 79% 29.77 in 5.6 mi Calm Calm - N/A   Partly Cloudy
12:30 AM 82.4 °F 90.9 °F 77.0 °F 84% 29.74 in 5.6 mi Calm Calm - N/A   Partly Cloudy
1:00 AM 82.4 °F 90.9 °F 77.0 °F 84% 29.74 in 5.6 mi Calm Calm - N/A   Partly Cloudy
7:00 AM 82.4 °F 90.9 °F 77.0 °F 84% 29.77 in 5.6 mi NNW 4.6 mph - N/A   Scattered Clouds
7:30 AM 82.4 °F 90.9 °F 77.0 °F 84% 29.77 in 6.2 mi Variable 2.3 mph - N/A   Scattered Clouds
8:00 AM 86.0 °F 95.1 °F 75.2 °F 70% 29.77 in 6.2 mi Variable 1.2 mph - N/A   Scattered Clouds
8:30 AM 86.0 °F 95.1 °F 75.2 °F 70% 29.77 in 6.2 mi Variable 2.3 mph - N/A   Partly Cloudy
9:00 AM 89.6 °F 99.8 °F 75.2 °F 62% 29.77 in 6.2 mi Variable 2.3 mph - N/A   Partly Cloudy
9:30 AM 91.4 °F 102.5 °F 75.2 °F 59% 29.77 in 6.2 mi Variable 1.2 mph - N/A   Partly Cloudy
10:00 AM 91.4 °F 102.5 °F 75.2 °F 59% 29.77 in 6.2 mi Variable 3.5 mph - N/A   Partly Cloudy
10:30 AM 93.2 °F 105.0 °F 75.2 °F 56% 29.77 in 6.2 mi Variable 3.5 mph - N/A   Partly Cloudy
11:00 AM 91.4 °F 102.5 °F 75.2 °F 59% 29.77 in 6.2 mi WSW 3.5 mph - N/A   Scattered Clouds
11:30 AM 93.2 °F 102.4 °F 73.4 °F 52% 29.77 in 6.2 mi Variable 2.3 mph - N/A   Scattered Clouds
12:00 PM 95.0 °F 107.4 °F 75.2 °F 53% 29.74 in 6.2 mi Variable 1.2 mph - N/A   Partly Cloudy
12:30 PM 95.0 °F 107.4 °F 75.2 °F 53% 29.71 in 6.2 mi Variable 3.5 mph - N/A   Partly Cloudy
1:00 PM 93.2 °F 102.4 °F 73.4 °F 52% 29.71 in 6.2 mi South 4.6 mph - N/A   Partly Cloudy
1:30 PM 91.4 °F 102.5 °F 75.2 °F 59% 29.68 in 6.2 mi Variable 2.3 mph - N/A   Scattered Clouds
2:00 PM 87.8 °F 99.7 °F 77.0 °F 70% 29.68 in 5.6 mi West 4.6 mph - N/A   Scattered Clouds
2:30 PM 84.2 °F 90.9 °F 73.4 °F 70% 29.68 in 5.6 mi WNW 11.5 mph - N/A   Scattered Clouds
3:00 PM 84.2 °F 92.3 °F 75.2 °F 74% 29.65 in 5.6 mi West 4.6 mph - N/A   Scattered Clouds
3:30 PM 84.2 °F 92.3 °F 75.2 °F 74% 29.65 in 5.6 mi West 4.6 mph - N/A   Scattered Clouds
4:00 PM 86.0 °F 93.4 °F 73.4 °F 66% 29.62 in 5.6 mi West 4.6 mph - N/A   Scattered Clouds
4:30 PM 86.0 °F 93.4 °F 73.4 °F 66% 29.62 in 5.6 mi Calm Calm - N/A   Scattered Clouds
5:00 PM 82.4 °F 88.2 °F 73.4 °F 74% 29.65 in 5.6 mi WSW 10.4 mph - N/A   Scattered Clouds
5:30 PM 80.6 °F 86.2 °F 75.2 °F 84% 29.68 in 5.6 mi SW 11.5 mph - N/A Rain , Thunderstorm Light Thunderstorms and Rain
6:00 PM 80.6 °F 86.2 °F 75.2 °F 84% 29.68 in 5.6 mi SSW 5.8 mph - N/A Rain , Thunderstorm Light Thunderstorms and Rain
6:30 PM 80.6 °F 87.1 °F 77.0 °F 89% 29.68 in 5.6 mi Variable 3.5 mph - N/A Rain , Thunderstorm Light Thunderstorms and Rain
7:00 PM 80.6 °F 87.1 °F 77.0 °F 89% 29.71 in 5.6 mi Variable 2.3 mph - N/A Rain Light Rain
7:30 PM 80.6 °F 87.1 °F 77.0 °F 89% 29.71 in 5.6 mi ENE 6.9 mph - N/A Rain Light Rain
8:00 PM 80.6 °F 87.1 °F 77.0 °F 89% 29.74 in 5.6 mi Variable 3.5 mph - N/A   Scattered Clouds
8:30 PM 80.6 °F 87.1 °F 77.0 °F 89% 29.74 in 5.6 mi Variable 1.2 mph - N/A   Scattered Clouds
9:00 PM 80.6 °F 87.1 °F 77.0 °F 89% 29.74 in 5.6 mi Variable 2.3 mph - N/A   Scattered Clouds
9:30 PM 80.6 °F 87.1 °F 77.0 °F 89% 29.74 in 5.6 mi Variable 1.2 mph - N/A   Scattered Clouds
10:00 PM 80.6 °F 87.1 °F 77.0 °F 89% 29.77 in 5.6 mi WNW 6.9 mph - N/A   Scattered Clouds
10:30 PM 80.6 °F 87.1 °F 77.0 °F 89% 29.74 in 5.6 mi Variable 1.2 mph - N/A   Scattered Clouds
11:00 PM 80.6 °F 87.1 °F 77.0 °F 89% 29.74 in 5.6 mi Variable 1.2 mph - N/A   Scattered Clouds
11:30 PM 80.6 °F 88.1 °F 78.8 °F 94% 29.74 in 5.6 mi Calm Calm - N/A   Scattered Clouds